Погода в Радченке

Россия / Тверская область     56°40′51″N   36°22′24″E
темп.,
°C
ветер,
м/с
пор.,
м/с
влажн.,
%
обл.,
%
осадки,
мм/ч
давл.,
гПа
погр.,
м
26 июня, вс
вс2600:00+18ю11780 0.0 102011
03:00+17зюз118234 0.0 102111
06:00+19зсз128185 0.0 102260
09:00+24сз116311 0.0 1022396
12:00+28зсз22495 0.0 10211449
15:00+29з22456 0.0 10211744
18:00+29з23555 0.0 1020658
21:00+23ююз33754 0.0 102048
27 июня, пн
пн2700:00+21зюз34830 0.0 102175
03:00+19з34890 0.0 102157
06:00+21сз26830 0.0 1021180
09:00+26сз35615 0.0 1021505
12:00+29сз46480 0.0 10201745
15:00+30сз57440 0.0 10202305
18:00+29ссз37500 0.0 1019641
21:00+22сз35690 0.0 101980
28 июня, вт
вт2800:00+20ссз34735 0.0 102073
03:00+17св24915 0.0 102159
06:00+19всв37886 0.0 1022248
09:00+22всв456120 0.0 1022628
12:00+24св4448100 0.0 10231297
15:00+24св44465 0.0 10221481
18:00+22всв45501 0.0 1022697
21:00+15всв39634 0.0 1023171
29 июня, ср
ср2900:00+12в34675 0.0 102478
03:00+11вюв228062 0.0 102519
06:00+13в247751 0.0 1025116
09:00+18всв34540 0.0 1024664
12:00+21всв33400 0.0 10241602
15:00+23всв22360 0.0 10231890
18:00+22св33450 0.0 1022858
21:00+15всв36690 0.0 102299
30 июня, чт
чт3000:00+12в22720 0.0 102313
03:00+10всв00770 0.0 102310
06:00+13ссв12725 0.0 102363
09:00+19с23506 0.0 1023570
12:00+22ссв2339100 0.0 10221267
15:00+24ссв34355 0.0 10221574
18:00+24ссв24450 0.0 1021895
21:00+17с22625 0.0 102211